星链-2615 (STARLINK-2615 )

导读 | 星芒AI

STARLINK-2615 是 SpaceX Starlink 卫星互联网项目中的第2615颗卫星,属于低轨卫星群的一部分,旨在为全球用户提供高速互联网服务。该卫星于2023年发射,运行在约550公里高度的近地轨道,采用先进通信技术,支持宽带数据传输。Starlink 项目致力于构建覆盖全球的卫星网络,尤其服务于偏远和网络基础设施薄弱的地区。STARLINK-2615 的部署进一步增强了 Starlink 网络的稳定性和覆盖范围。

基本信息
目录编号:
48678
目录名称:
STARLINK-2615
国际标识:
2021-044AS
轨道中心:
EARTH
卫星名称:
星链-2615
卫星全名:
星链-2615 (STARLINK-2615 )
卫星状态:
在轨 (已飞行1618 天)
发射日期:
2021-05-26 UTC
国别 :
美国 (US)
星等 :
--
轨道信息
数据来源 国际轨道数据
星历时间: 2025-10-30T15:03:32+0800
6小时前
查看轨道信息
半长轴: 6925.375km
偏心率: 0.0001603
轨道倾角: 53.055°
近地点辐角 92.104°
升交点赤经 336.987°
平近点角 268.013°
近地点: 546.129km
远地点: 548.351km
周期: 95.593分钟
每日圈数: 15.063914
详细信息
固有亮度:
5
最大亮度:
2.5
卫星平台:
Starlink v1.5
覆盖范围:
全球
运营商:
太空探索技术公司
运营商所在国:
美国
制造商(研发单位):
太空探索技术公司
制造商所在国:
美国
使用方式:
暂无
卫星简介
星链(Starlink)计划是由太空探索技术公司(SpaceX)提出的一个巨型低轨卫星互联网星座项目,计划在2019年至2024年间在太空搭建由约1.2万颗卫星组成的“星链”网络,其中1584颗将部署在地球上空550千米处的近地轨道,并从2020年开始工作。该卫星仍在工作。
2D轨道图
3D轨道图
轨道高度分析图
轨道倾角分析图
轨道综合分析图
查看轨道综合分析图